Time,TemperatureF,DewpointF,PressureIn,WindDirection,WindDirectionDegrees,WindSpeedMPH,WindSpeedGustMPH,Humidity,HourlyPrecipIn,Conditions,Clouds,dailyrainin,SoftwareType,DateUTC
2013-06-06 00:04:00,63.6,57.3,29.92,NE,45,2.0,7.0,80,0.00,,,0.00,Wunderground v.1.15,2013-06-06 05:04:00,
2013-06-06 00:09:00,63.3,56.7,29.91,NNE,20,3.0,3.0,79,0.00,,,0.00,Wunderground v.1.15,2013-06-06 05:09:00,
2013-06-06 00:14:00,63.1,56.8,29.91,NE,45,2.0,7.0,80,0.00,,,0.00,Wunderground v.1.15,2013-06-06 05:14:00,
2013-06-06 00:19:00,62.9,56.6,29.92,NE,48,1.0,7.0,80,0.00,,,0.00,Wunderground v.1.15,2013-06-06 05:19:00,
2013-06-06 00:24:00,62.6,56.0,29.92,NNE,13,1.0,7.0,79,0.00,,,0.00,Wunderground v.1.15,2013-06-06 05:24:00,
2013-06-06 00:29:00,62.4,56.1,29.92,NNW,336,2.0,7.0,80,0.00,,,0.00,Wunderground v.1.15,2013-06-06 05:29:00,
2013-06-06 00:35:00,62.2,56.0,29.91,NE,36,2.0,7.0,80,0.00,,,0.00,Wunderground v.1.15,2013-06-06 05:35:00,
2013-06-06 00:40:00,62.0,55.8,29.91,NNE,30,2.0,7.0,80,0.00,,,0.00,Wunderground v.1.15,2013-06-06 05:40:00,
2013-06-06 00:45:00,61.8,55.6,29.91,NNE,33,1.0,7.0,80,0.00,,,0.00,Wunderground v.1.15,2013-06-06 05:45:00,
2013-06-06 00:50:00,61.6,55.7,29.91,NE,37,2.0,2.0,81,0.00,,,0.00,Wunderground v.1.15,2013-06-06 05:50:00,
2013-06-06 00:55:00,61.3,55.4,29.91,ENE,74,2.0,3.0,81,0.00,,,0.00,Wunderground v.1.15,2013-06-06 05:55:00,
2013-06-06 01:00:00,61.2,55.3,29.91,ENE,74,2.0,2.0,81,0.00,,,0.00,Wunderground v.1.15,2013-06-06 06:00:00,
2013-06-06 01:10:00,60.9,55.0,29.91,NNE,31,2.0,2.0,81,0.00,,,0.00,Wunderground v.1.15,2013-06-06 06:10:00,
2013-06-06 01:15:00,60.8,55.3,29.91,NE,53,1.0,7.0,82,0.00,,,0.00,Wunderground v.1.15,2013-06-06 06:15:00,
2013-06-06 01:20:00,60.6,55.1,29.90,NE,40,1.0,1.0,82,0.00,,,0.00,Wunderground v.1.15,2013-06-06 06:20:00,
2013-06-06 01:25:00,60.5,55.0,29.90,NE,40,1.0,7.0,82,0.00,,,0.00,Wunderground v.1.15,2013-06-06 06:25:00,
2013-06-06 01:30:00,60.4,55.2,29.90,NE,40,1.0,7.0,83,0.00,,,0.00,Wunderground v.1.15,2013-06-06 06:30:00,
2013-06-06 01:40:00,60.1,54.9,29.89,ENE,65,1.0,1.0,83,0.00,,,0.00,Wunderground v.1.15,2013-06-06 06:40:00,
2013-06-06 01:45:00,60.0,55.2,29.89,ENE,63,1.0,7.0,84,0.00,,,0.00,Wunderground v.1.15,2013-06-06 06:45:00,
2013-06-06 01:50:00,59.9,54.7,29.89,ENE,63,1.0,1.0,83,0.00,,,0.00,Wunderground v.1.15,2013-06-06 06:50:00,
2013-06-06 01:55:00,59.8,55.0,29.89,ENE,63,0.0,7.0,84,0.00,,,0.00,Wunderground v.1.15,2013-06-06 06:55:00,
2013-06-06 02:00:00,59.7,54.9,29.89,ENE,60,0.0,7.0,84,0.00,,,0.00,Wunderground v.1.15,2013-06-06 07:00:00,
2013-06-06 02:05:00,59.6,54.8,29.88,ENE,61,0.0,7.0,84,0.00,,,0.00,Wunderground v.1.15,2013-06-06 07:05:00,
2013-06-06 02:14:00,59.3,54.5,29.88,ENE,61,0.0,7.0,84,0.00,,,0.00,Wunderground v.1.15,2013-06-06 07:14:00,
2013-06-06 02:19:00,59.2,54.7,29.88,ENE,61,0.0,7.0,85,0.00,,,0.00,Wunderground v.1.15,2013-06-06 07:19:00,
2013-06-06 02:24:00,59.1,54.6,29.88,ENE,61,0.0,7.0,85,0.00,,,0.00,Wunderground v.1.15,2013-06-06 07:24:00,
2013-06-06 02:29:00,58.9,54.4,29.88,ENE,62,0.0,7.0,85,0.00,,,0.00,Wunderground v.1.15,2013-06-06 07:29:00,
2013-06-06 02:34:00,58.9,54.4,29.88,ENE,62,0.0,7.0,85,0.00,,,0.00,Wunderground v.1.15,2013-06-06 07:34:00,
2013-06-06 02:40:00,58.7,54.2,29.87,ENE,57,1.0,1.0,85,0.00,,,0.00,Wunderground v.1.15,2013-06-06 07:40:00,
2013-06-06 02:45:00,58.7,54.2,29.87,ENE,57,1.0,7.0,85,0.00,,,0.00,Wunderground v.1.15,2013-06-06 07:45:00,
2013-06-06 02:50:00,58.6,54.1,29.87,ENE,58,1.0,1.0,85,0.00,,,0.00,Wunderground v.1.15,2013-06-06 07:50:00,
2013-06-06 02:55:00,58.6,54.4,29.87,ESE,102,1.0,7.0,86,0.00,,,0.00,Wunderground v.1.15,2013-06-06 07:55:00,
2013-06-06 03:00:00,58.6,54.4,29.86,ESE,115,0.0,7.0,86,0.00,,,0.00,Wunderground v.1.15,2013-06-06 08:00:00,
2013-06-06 03:05:00,58.6,54.4,29.86,ESE,115,0.0,7.0,86,0.00,,,0.00,Wunderground v.1.15,2013-06-06 08:05:00,
2013-06-06 03:15:00,58.4,54.5,29.87,ESE,115,0.0,7.0,87,0.00,,,0.00,Wunderground v.1.15,2013-06-06 08:15:00,
2013-06-06 03:20:00,58.3,54.4,29.87,ESE,103,0.0,7.0,87,0.00,,,0.00,Wunderground v.1.15,2013-06-06 08:20:00,
2013-06-06 03:25:00,58.3,54.4,29.87,East,100,0.0,7.0,87,0.00,,,0.00,Wunderground v.1.15,2013-06-06 08:25:00,
2013-06-06 03:30:00,58.3,54.4,29.87,East,100,0.0,7.0,87,0.00,,,0.00,Wunderground v.1.15,2013-06-06 08:30:00,
2013-06-06 03:35:00,58.3,54.4,29.87,East,100,0.0,7.0,87,0.00,,,0.00,Wunderground v.1.15,2013-06-06 08:35:00,
2013-06-06 03:40:00,58.3,54.4,29.87,East,100,0.0,7.0,87,0.00,,,0.00,Wunderground v.1.15,2013-06-06 08:40:00,
2013-06-06 03:50:00,58.3,54.4,29.87,East,96,1.0,7.0,87,0.00,,,0.00,Wunderground v.1.15,2013-06-06 08:50:00,
2013-06-06 03:55:00,58.3,54.4,29.86,East,96,1.0,7.0,87,0.00,,,0.00,Wunderground v.1.15,2013-06-06 08:55:00,
2013-06-06 04:00:00,58.2,54.3,29.86,East,96,0.0,7.0,87,0.00,,,0.00,Wunderground v.1.15,2013-06-06 09:00:00,
2013-06-06 04:05:00,58.1,54.2,29.86,ENE,78,0.0,7.0,87,0.00,,,0.00,Wunderground v.1.15,2013-06-06 09:05:00,
2013-06-06 04:10:00,58.2,54.3,29.86,ENE,78,0.0,7.0,87,0.00,,,0.00,Wunderground v.1.15,2013-06-06 09:10:00,
2013-06-06 04:20:00,58.0,53.8,29.87,ENE,78,0.0,7.0,86,0.00,,,0.00,Wunderground v.1.15,2013-06-06 09:20:00,
2013-06-06 04:25:00,58.0,54.2,29.86,ENE,78,0.0,7.0,87,0.00,,,0.00,Wunderground v.1.15,2013-06-06 09:25:00,
2013-06-06 04:30:00,58.0,54.2,29.87,ENE,78,0.0,7.0,87,0.00,,,0.00,Wunderground v.1.15,2013-06-06 09:30:00,
2013-06-06 04:35:00,58.0,54.2,29.86,ENE,78,0.0,7.0,87,0.00,,,0.00,Wunderground v.1.15,2013-06-06 09:35:00,
2013-06-06 04:40:00,58.0,53.8,29.86,ENE,78,0.0,7.0,86,0.00,,,0.00,Wunderground v.1.15,2013-06-06 09:40:00,
2013-06-06 04:45:00,58.0,54.2,29.86,ENE,78,0.0,7.0,87,0.00,,,0.00,Wunderground v.1.15,2013-06-06 09:45:00,
2013-06-06 04:55:00,57.9,54.1,29.86,ENE,78,0.0,7.0,87,0.00,,,0.00,Wunderground v.1.15,2013-06-06 09:55:00,
2013-06-06 05:00:00,57.8,54.0,29.86,ENE,78,0.0,7.0,87,0.00,,,0.00,Wunderground v.1.15,2013-06-06 10:00:00,
2013-06-06 05:05:00,57.8,54.3,29.86,ENE,78,0.0,7.0,88,0.00,,,0.00,Wunderground v.1.15,2013-06-06 10:05:00,
2013-06-06 05:10:00,57.7,53.9,29.86,ENE,78,0.0,7.0,87,0.00,,,0.00,Wunderground v.1.15,2013-06-06 10:10:00,
2013-06-06 05:15:00,57.7,54.2,29.86,ENE,78,0.0,7.0,88,0.00,,,0.00,Wunderground v.1.15,2013-06-06 10:15:00,
2013-06-06 05:24:00,57.6,53.8,29.86,ENE,78,0.0,7.0,87,0.00,,,0.00,Wunderground v.1.15,2013-06-06 10:24:00,
2013-06-06 05:29:00,57.6,53.8,29.86,ENE,78,0.0,7.0,87,0.00,,,0.00,Wunderground v.1.15,2013-06-06 10:29:00,
2013-06-06 05:34:00,57.6,53.8,29.86,ENE,78,0.0,7.0,87,0.00,,,0.00,Wunderground v.1.15,2013-06-06 10:34:00,
2013-06-06 05:39:00,57.6,53.8,29.86,ENE,78,0.0,7.0,87,0.00,,,0.00,Wunderground v.1.15,2013-06-06 10:39:00,
2013-06-06 05:44:00,57.6,53.8,29.86,ENE,78,0.0,7.0,87,0.00,,,0.00,Wunderground v.1.15,2013-06-06 10:44:00,
2013-06-06 05:49:00,57.5,53.7,29.86,ENE,78,0.0,7.0,87,0.00,,,0.00,Wunderground v.1.15,2013-06-06 10:49:00,
2013-06-06 05:55:00,57.5,53.7,29.86,ENE,78,0.0,7.0,87,0.00,,,0.00,Wunderground v.1.15,2013-06-06 10:55:00,
2013-06-06 06:00:00,57.5,54.0,29.86,ENE,78,0.0,7.0,88,0.00,,,0.00,Wunderground v.1.15,2013-06-06 11:00:00,
2013-06-06 06:05:00,57.5,54.0,29.87,ENE,78,1.0,7.0,88,0.00,,,0.00,Wunderground v.1.15,2013-06-06 11:05:00,
2013-06-06 06:10:00,57.6,54.1,29.87,ENE,78,0.0,7.0,88,0.00,,,0.00,Wunderground v.1.15,2013-06-06 11:10:00,
2013-06-06 06:15:00,57.6,54.1,29.86,ENE,78,0.0,7.0,88,0.00,,,0.00,Wunderground v.1.15,2013-06-06 11:15:00,
2013-06-06 06:20:00,57.6,54.1,29.87,ENE,78,0.0,7.0,88,0.00,,,0.00,Wunderground v.1.15,2013-06-06 11:20:00,
2013-06-06 06:30:00,57.7,54.2,29.87,ENE,78,0.0,7.0,88,0.00,,,0.00,Wunderground v.1.15,2013-06-06 11:30:00,
2013-06-06 06:35:00,57.8,54.6,29.87,ENE,78,0.0,7.0,89,0.00,,,0.00,Wunderground v.1.15,2013-06-06 11:35:00,
2013-06-06 06:40:00,57.9,54.7,29.87,ENE,78,0.0,7.0,89,0.00,,,0.00,Wunderground v.1.15,2013-06-06 11:40:00,
2013-06-06 06:45:00,58.0,54.8,29.87,ENE,78,0.0,7.0,89,0.00,,,0.00,Wunderground v.1.15,2013-06-06 11:45:00,
2013-06-06 06:50:00,58.1,54.9,29.87,ENE,78,0.0,7.0,89,0.00,,,0.00,Wunderground v.1.15,2013-06-06 11:50:00,
2013-06-06 07:00:00,58.4,54.9,29.87,ENE,78,0.0,7.0,88,0.00,,,0.00,Wunderground v.1.15,2013-06-06 12:00:00,
2013-06-06 07:05:00,58.5,55.0,29.87,ENE,78,0.0,7.0,88,0.00,,,0.00,Wunderground v.1.15,2013-06-06 12:05:00,
2013-06-06 07:10:00,58.6,55.1,29.87,ENE,74,0.0,7.0,88,0.00,,,0.00,Wunderground v.1.15,2013-06-06 12:10:00,
2013-06-06 07:15:00,58.7,55.2,29.88,ENE,74,1.0,7.0,88,0.00,,,0.00,Wunderground v.1.15,2013-06-06 12:15:00,
2013-06-06 07:20:00,58.9,55.0,29.88,ENE,74,0.0,7.0,87,0.00,,,0.00,Wunderground v.1.15,2013-06-06 12:20:00,
2013-06-06 07:25:00,59.0,55.4,29.88,NE,44,1.0,7.0,88,0.00,,,0.00,Wunderground v.1.15,2013-06-06 12:25:00,
2013-06-06 07:34:00,59.3,55.7,29.89,NE,44,0.0,7.0,88,0.00,,,0.00,Wunderground v.1.15,2013-06-06 12:34:00,
2013-06-06 07:39:00,59.5,55.9,29.89,NE,44,0.0,7.0,88,0.00,,,0.00,Wunderground v.1.15,2013-06-06 12:39:00,
2013-06-06 07:44:00,59.8,55.9,29.89,NE,38,1.0,7.0,87,0.00,,,0.00,Wunderground v.1.15,2013-06-06 12:44:00,
2013-06-06 07:49:00,60.0,55.8,29.89,NNE,26,1.0,7.0,86,0.00,,,0.00,Wunderground v.1.15,2013-06-06 12:49:00,
2013-06-06 07:54:00,60.3,55.8,29.89,NNE,27,2.0,7.0,85,0.00,,,0.00,Wunderground v.1.15,2013-06-06 12:54:00,
2013-06-06 08:00:00,60.4,55.5,29.89,NNE,24,2.0,2.0,84,0.00,,,0.00,Wunderground v.1.15,2013-06-06 13:00:00,
2013-06-06 08:05:00,60.4,55.5,29.89,NNE,24,1.0,7.0,84,0.00,,,0.00,Wunderground v.1.15,2013-06-06 13:05:00,
2013-06-06 08:10:00,60.3,55.1,29.89,NNE,22,1.0,1.0,83,0.00,,,0.00,Wunderground v.1.15,2013-06-06 13:10:00,
2013-06-06 08:15:00,60.3,56.1,29.89,NNE,22,1.0,7.0,86,0.00,,,0.00,Wunderground v.1.15,2013-06-06 13:15:00,
2013-06-06 08:20:00,60.3,55.4,29.89,NNE,22,0.0,7.0,84,0.00,,,0.00,Wunderground v.1.15,2013-06-06 13:20:00,
2013-06-06 08:25:00,60.3,55.8,29.89,NNE,22,0.0,7.0,85,0.00,,,0.00,Wunderground v.1.15,2013-06-06 13:25:00,
2013-06-06 08:35:00,60.4,56.2,29.89,NNE,12,1.0,7.0,86,0.00,,,0.00,Wunderground v.1.15,2013-06-06 13:35:00,
2013-06-06 08:40:00,60.6,56.1,29.90,NNE,20,2.0,7.0,85,0.00,,,0.00,Wunderground v.1.15,2013-06-06 13:40:00,
2013-06-06 08:45:00,60.9,56.7,29.90,NNE,13,3.0,7.0,86,0.00,,,0.00,Wunderground v.1.15,2013-06-06 13:45:00,
2013-06-06 08:50:00,61.1,56.6,29.90,North,355,4.0,8.0,85,0.00,,,0.00,Wunderground v.1.15,2013-06-06 13:50:00,
2013-06-06 08:55:00,61.1,56.2,29.90,NE,46,5.0,8.0,84,0.00,,,0.00,Wunderground v.1.15,2013-06-06 13:55:00,
2013-06-06 09:00:00,61.3,56.4,29.90,NE,45,4.0,7.0,84,0.00,,,0.00,Wunderground v.1.15,2013-06-06 14:00:00,
2013-06-06 09:10:00,61.4,56.2,29.89,ENE,63,4.0,4.0,83,0.00,,,0.00,Wunderground v.1.15,2013-06-06 14:10:00,
2013-06-06 09:15:00,61.6,56.7,29.89,NNE,26,4.0,5.0,84,0.00,,,0.00,Wunderground v.1.15,2013-06-06 14:15:00,
2013-06-06 09:20:00,62.5,56.6,29.89,North,5,4.0,9.0,81,0.00,,,0.00,Wunderground v.1.15,2013-06-06 14:20:00,
2013-06-06 09:25:00,62.7,56.8,29.89,NNE,21,5.0,9.0,81,0.00,,,0.00,Wunderground v.1.15,2013-06-06 14:25:00,
2013-06-06 09:30:00,62.9,56.6,29.89,ENE,74,5.0,5.0,80,0.00,,,0.00,Wunderground v.1.15,2013-06-06 14:30:00,
2013-06-06 09:40:00,63.2,56.2,29.89,NNE,24,3.0,7.0,78,0.00,,,0.00,Wunderground v.1.15,2013-06-06 14:40:00,
2013-06-06 09:45:00,63.1,56.5,29.89,North,5,4.0,7.0,79,0.00,,,0.00,Wunderground v.1.15,2013-06-06 14:45:00,
2013-06-06 09:50:00,62.9,55.9,29.89,ENE,67,3.0,3.0,78,0.00,,,0.00,Wunderground v.1.15,2013-06-06 14:50:00,
2013-06-06 09:55:00,62.6,56.0,29.89,ENE,59,2.0,7.0,79,0.00,,,0.00,Wunderground v.1.15,2013-06-06 14:55:00,
2013-06-06 10:00:00,62.4,55.8,29.90,ENE,78,3.0,7.0,79,0.00,,,0.00,Wunderground v.1.15,2013-06-06 15:00:00,
2013-06-06 10:05:00,62.0,56.1,29.89,SE,130,3.0,7.0,81,0.00,,,0.00,Wunderground v.1.15,2013-06-06 15:05:00,
2013-06-06 10:15:00,61.4,56.8,29.89,East,90,1.0,7.0,85,0.00,,,0.00,Wunderground v.1.15,2013-06-06 15:15:00,
2013-06-06 10:20:00,61.2,56.7,29.89,ENE,78,1.0,1.0,85,0.00,,,0.00,Wunderground v.1.15,2013-06-06 15:20:00,
2013-06-06 10:25:00,61.1,56.9,29.89,NE,55,1.0,7.0,86,0.00,,,0.00,Wunderground v.1.15,2013-06-06 15:25:00,
2013-06-06 10:30:00,61.2,56.7,29.88,NE,37,1.0,1.0,85,0.00,,,0.00,Wunderground v.1.15,2013-06-06 15:30:00,
2013-06-06 10:35:00,61.4,57.2,29.88,ESE,119,1.0,7.0,86,0.00,,,0.00,Wunderground v.1.15,2013-06-06 15:35:00,
2013-06-06 10:45:00,62.1,57.5,29.88,NNW,340,1.0,7.0,85,0.00,,,0.00,Wunderground v.1.15,2013-06-06 15:45:00,
2013-06-06 10:50:00,62.4,57.8,29.89,NNE,17,3.0,3.0,85,0.00,,,0.00,Wunderground v.1.15,2013-06-06 15:50:00,
2013-06-06 10:55:00,62.7,57.5,29.89,NNE,21,2.0,7.0,83,0.00,,,0.00,Wunderground v.1.15,2013-06-06 15:55:00,
2013-06-06 11:00:00,62.9,57.7,29.88,East,86,2.0,2.0,83,0.00,,,0.00,Wunderground v.1.15,2013-06-06 16:00:00,
2013-06-06 11:05:00,63.2,58.3,29.88,West,279,1.0,7.0,84,0.00,,,0.00,Wunderground v.1.15,2013-06-06 16:05:00,
2013-06-06 11:10:00,63.6,58.3,29.88,NNE,28,1.0,1.0,83,0.00,,,0.00,Wunderground v.1.15,2013-06-06 16:10:00,
2013-06-06 11:20:00,65.1,59.8,29.87,ENE,60,1.0,7.0,83,0.00,,,0.00,Wunderground v.1.15,2013-06-06 16:20:00,
2013-06-06 11:25:00,65.6,58.9,29.87,NW,322,1.0,7.0,79,0.00,,,0.00,Wunderground v.1.15,2013-06-06 16:25:00,
2013-06-06 11:30:00,65.4,57.6,29.87,ENE,65,2.0,2.0,76,0.00,,,0.00,Wunderground v.1.15,2013-06-06 16:30:00,
2013-06-06 11:35:00,65.6,58.2,29.86,East,81,2.0,7.0,77,0.00,,,0.00,Wunderground v.1.15,2013-06-06 16:35:00,
2013-06-06 11:40:00,65.9,59.2,29.87,ENE,75,1.0,1.0,79,0.00,,,0.00,Wunderground v.1.15,2013-06-06 16:40:00,
2013-06-06 11:50:00,67.2,59.0,29.86,SE,127,2.0,2.0,75,0.00,,,0.00,Wunderground v.1.15,2013-06-06 16:50:00,
2013-06-06 11:55:00,67.4,60.7,29.86,SE,136,1.0,3.0,79,0.00,,,0.00,Wunderground v.1.15,2013-06-06 16:55:00,
2013-06-06 12:00:00,67.5,58.9,29.87,NE,40,2.0,2.0,74,0.00,,,0.00,Wunderground v.1.15,2013-06-06 17:00:00,
2013-06-06 12:05:00,67.7,59.5,29.87,ESE,102,2.0,7.0,75,0.00,,,0.00,Wunderground v.1.15,2013-06-06 17:05:00,
2013-06-06 12:10:00,68.3,60.1,29.87,East,84,1.0,1.0,75,0.00,,,0.00,Wunderground v.1.15,2013-06-06 17:10:00,
2013-06-06 12:15:00,68.8,59.4,29.87,SE,144,1.0,7.0,72,0.00,,,0.00,Wunderground v.1.15,2013-06-06 17:15:00,
2013-06-06 12:25:00,69.3,61.0,29.87,NE,53,1.0,7.0,75,0.00,,,0.00,Wunderground v.1.15,2013-06-06 17:25:00,
2013-06-06 12:30:00,69.8,61.5,29.87,ENE,60,1.0,1.0,75,0.00,,,0.00,Wunderground v.1.15,2013-06-06 17:30:00,
2013-06-06 12:35:00,70.2,60.4,29.87,NNE,30,1.0,6.0,71,0.00,,,0.00,Wunderground v.1.15,2013-06-06 17:35:00,
2013-06-06 12:40:00,69.9,60.1,29.87,East,87,2.0,2.0,71,0.00,,,0.00,Wunderground v.1.15,2013-06-06 17:40:00,
2013-06-06 12:45:00,70.0,60.2,29.87,NE,42,2.0,7.0,71,0.00,,,0.00,Wunderground v.1.15,2013-06-06 17:45:00,
2013-06-06 12:55:00,70.5,60.2,29.87,NE,50,2.0,7.0,70,0.00,,,0.00,Wunderground v.1.15,2013-06-06 17:55:00,
2013-06-06 13:00:00,70.8,60.1,29.88,NNE,15,1.0,1.0,69,0.00,,,0.00,Wunderground v.1.15,2013-06-06 18:00:00,
2013-06-06 13:05:00,70.6,60.3,29.88,NNE,26,2.0,5.0,70,0.00,,,0.00,Wunderground v.1.15,2013-06-06 18:05:00,
2013-06-06 13:10:00,70.4,60.5,29.88,ENE,63,3.0,3.0,71,0.00,,,0.00,Wunderground v.1.15,2013-06-06 18:10:00,
2013-06-06 13:15:00,70.7,60.4,29.88,ENE,61,2.0,7.0,70,0.00,,,0.00,Wunderground v.1.15,2013-06-06 18:15:00,
2013-06-06 13:20:00,70.9,61.4,29.88,ENE,65,1.0,7.0,72,0.00,,,0.00,Wunderground v.1.15,2013-06-06 18:20:00,
2013-06-06 13:29:00,71.2,60.9,29.88,NE,42,2.0,7.0,70,0.00,,,0.00,Wunderground v.1.15,2013-06-06 18:29:00,
2013-06-06 13:34:00,71.1,61.6,29.88,NNE,32,3.0,8.0,72,0.00,,,0.00,Wunderground v.1.15,2013-06-06 18:34:00,
2013-06-06 13:39:00,71.4,61.1,29.88,ENE,63,3.0,3.0,70,0.00,,,0.00,Wunderground v.1.15,2013-06-06 18:39:00,
2013-06-06 13:44:00,71.3,61.0,29.88,NE,35,3.0,6.0,70,0.00,,,0.00,Wunderground v.1.15,2013-06-06 18:44:00,
2013-06-06 13:50:00,71.3,60.6,29.88,NE,53,2.0,2.0,69,0.00,,,0.00,Wunderground v.1.15,2013-06-06 18:50:00,
2013-06-06 13:59:00,71.6,61.7,29.88,North,360,2.0,2.0,71,0.00,,,0.00,Wunderground v.1.15,2013-06-06 18:59:00,
2013-06-06 14:04:00,71.7,62.2,29.88,North,9,1.0,7.0,72,0.00,,,0.00,Wunderground v.1.15,2013-06-06 19:04:00,
2013-06-06 14:09:00,71.8,62.7,29.88,North,350,1.0,7.0,73,0.00,,,0.00,Wunderground v.1.15,2013-06-06 19:09:00,
2013-06-06 14:14:00,71.9,60.8,29.88,NNE,12,1.0,7.0,68,0.00,,,0.00,Wunderground v.1.15,2013-06-06 19:14:00,
2013-06-06 14:19:00,71.8,61.1,29.87,NNE,23,2.0,2.0,69,0.00,,,0.00,Wunderground v.1.15,2013-06-06 19:19:00,
2013-06-06 14:24:00,71.6,60.5,29.87,NE,44,2.0,7.0,68,0.00,,,0.00,Wunderground v.1.15,2013-06-06 19:24:00,
2013-06-06 14:30:00,71.9,62.4,29.87,NE,37,1.0,1.0,72,0.00,,,0.00,Wunderground v.1.15,2013-06-06 19:30:00,
2013-06-06 14:35:00,72.4,62.1,29.87,NNE,19,0.0,3.0,70,0.00,,,0.00,Wunderground v.1.15,2013-06-06 19:35:00,
2013-06-06 14:40:00,72.8,62.0,29.87,NNE,31,1.0,1.0,69,0.00,,,0.00,Wunderground v.1.15,2013-06-06 19:40:00,
2013-06-06 14:45:00,72.8,61.2,29.87,NE,53,3.0,3.0,67,0.00,,,0.00,Wunderground v.1.15,2013-06-06 19:45:00,
2013-06-06 14:54:00,72.7,61.5,29.88,NE,37,1.0,7.0,68,0.00,,,0.00,Wunderground v.1.15,2013-06-06 19:54:00,
2013-06-06 15:00:00,72.6,61.4,29.87,NE,43,1.0,7.0,68,0.00,,,0.00,Wunderground v.1.15,2013-06-06 20:00:00,
2013-06-06 15:05:00,73.0,63.0,29.87,NW,315,1.0,7.0,71,0.00,,,0.00,Wunderground v.1.15,2013-06-06 20:05:00,
2013-06-06 15:10:00,73.4,63.4,29.87,NNE,23,2.0,7.0,71,0.00,,,0.00,Wunderground v.1.15,2013-06-06 20:10:00,
2013-06-06 15:15:00,73.8,62.6,29.87,North,355,2.0,7.0,68,0.00,,,0.00,Wunderground v.1.15,2013-06-06 20:15:00,
2013-06-06 15:20:00,73.5,62.7,29.87,NNE,25,3.0,7.0,69,0.00,,,0.00,Wunderground v.1.15,2013-06-06 20:20:00,
2013-06-06 15:25:00,73.4,63.0,29.87,ENE,59,3.0,7.0,70,0.00,,,0.00,Wunderground v.1.15,2013-06-06 20:25:00,
2013-06-06 15:35:00,73.4,61.3,29.87,North,355,1.0,7.0,66,0.00,,,0.00,Wunderground v.1.15,2013-06-06 20:35:00,
2013-06-06 15:40:00,72.8,62.0,29.87,NW,308,2.0,7.0,69,0.00,,,0.00,Wunderground v.1.15,2013-06-06 20:40:00,
2013-06-06 15:45:00,72.2,62.3,29.87,North,5,3.0,7.0,71,0.00,,,0.00,Wunderground v.1.15,2013-06-06 20:45:00,
2013-06-06 15:50:00,71.7,61.8,29.88,NNW,329,2.0,2.0,71,0.00,,,0.00,Wunderground v.1.15,2013-06-06 20:50:00,
2013-06-06 15:55:00,71.2,62.1,29.87,WNW,300,2.0,7.0,73,0.00,,,0.00,Wunderground v.1.15,2013-06-06 20:55:00,
2013-06-06 16:00:00,70.8,62.1,29.88,NNW,335,2.0,2.0,74,0.00,,,0.00,Wunderground v.1.15,2013-06-06 21:00:00,
2013-06-06 16:10:00,70.3,62.0,29.88,NW,309,2.0,7.0,75,0.00,,,0.00,Wunderground v.1.15,2013-06-06 21:10:00,
2013-06-06 16:15:00,70.2,62.3,29.88,NNW,333,2.0,7.0,76,0.00,,,0.00,Wunderground v.1.15,2013-06-06 21:15:00,
2013-06-06 16:20:00,70.2,62.3,29.87,NNW,347,2.0,7.0,76,0.00,,,0.00,Wunderground v.1.15,2013-06-06 21:20:00,
2013-06-06 16:25:00,70.1,62.6,29.87,NNW,348,3.0,7.0,77,0.00,,,0.00,Wunderground v.1.15,2013-06-06 21:25:00,
2013-06-06 16:30:00,70.0,62.5,29.87,NNE,19,3.0,3.0,77,0.00,,,0.00,Wunderground v.1.15,2013-06-06 21:30:00,
2013-06-06 16:40:00,69.7,62.2,29.87,NNW,341,4.0,4.0,77,0.00,,,0.00,Wunderground v.1.15,2013-06-06 21:40:00,
2013-06-06 16:45:00,69.6,62.4,29.87,NW,312,3.0,7.0,78,0.00,,,0.00,Wunderground v.1.15,2013-06-06 21:45:00,
2013-06-06 16:50:00,69.5,62.3,29.87,NNE,19,2.0,7.0,78,0.00,,,0.00,Wunderground v.1.15,2013-06-06 21:50:00,
2013-06-06 16:55:00,69.2,62.4,29.88,NNE,22,3.0,7.0,79,0.00,,,0.00,Wunderground v.1.15,2013-06-06 21:55:00,
2013-06-06 17:00:00,69.1,61.9,29.88,NW,325,4.0,4.0,78,0.00,,,0.00,Wunderground v.1.15,2013-06-06 22:00:00,
2013-06-06 17:05:00,68.9,62.1,29.88,NNE,19,3.0,7.0,79,0.00,,,0.00,Wunderground v.1.15,2013-06-06 22:05:00,
2013-06-06 17:14:00,68.7,61.9,29.88,North,5,2.0,7.0,79,0.00,,,0.00,Wunderground v.1.15,2013-06-06 22:14:00,
2013-06-06 17:19:00,68.6,62.2,29.88,NNW,336,1.0,7.0,80,0.00,,,0.00,Wunderground v.1.15,2013-06-06 22:19:00,
2013-06-06 17:24:00,68.6,62.2,29.88,North,355,1.0,7.0,80,0.00,,,0.00,Wunderground v.1.15,2013-06-06 22:24:00,
2013-06-06 17:29:00,68.5,62.1,29.88,North,355,1.0,1.0,80,0.00,,,0.00,Wunderground v.1.15,2013-06-06 22:29:00,
2013-06-06 17:34:00,68.4,62.0,29.88,North,360,1.0,7.0,80,0.00,,,0.00,Wunderground v.1.15,2013-06-06 22:34:00,
2013-06-06 17:40:00,68.3,61.9,29.88,North,360,1.0,1.0,80,0.00,,,0.00,Wunderground v.1.15,2013-06-06 22:40:00,
2013-06-06 17:45:00,68.1,61.7,29.88,North,355,1.0,7.0,80,0.00,,,0.00,Wunderground v.1.15,2013-06-06 22:45:00,
2013-06-06 17:50:00,68.1,61.3,29.88,NNE,25,1.0,7.0,79,0.00,,,0.00,Wunderground v.1.15,2013-06-06 22:50:00,
2013-06-06 17:55:00,68.0,61.6,29.87,NNE,22,1.0,7.0,80,0.00,,,0.00,Wunderground v.1.15,2013-06-06 22:55:00,
2013-06-06 18:00:00,67.9,61.9,29.88,NNE,17,1.0,1.0,81,0.00,,,0.00,Wunderground v.1.15,2013-06-06 23:00:00,
2013-06-06 18:05:00,67.8,62.1,29.87,NNE,17,1.0,2.0,82,0.00,,,0.00,Wunderground v.1.15,2013-06-06 23:05:00,
2013-06-06 18:15:00,67.5,62.5,29.87,NNE,17,0.0,7.0,84,0.00,,,0.00,Wunderground v.1.15,2013-06-06 23:15:00,
2013-06-06 18:20:00,67.4,62.4,29.87,NNE,17,0.0,7.0,84,0.00,,,0.00,Wunderground v.1.15,2013-06-06 23:20:00,
2013-06-06 18:25:00,67.3,62.0,29.87,NNE,17,0.0,7.0,83,0.00,,,0.00,Wunderground v.1.15,2013-06-06 23:25:00,
2013-06-06 18:30:00,67.2,61.9,29.87,NNE,17,0.0,7.0,83,0.00,,,0.00,Wunderground v.1.15,2013-06-06 23:30:00,
2013-06-06 18:35:00,67.2,62.2,29.87,NNE,17,0.0,7.0,84,0.00,,,0.00,Wunderground v.1.15,2013-06-06 23:35:00,
2013-06-06 18:40:00,67.2,62.2,29.87,NNE,17,0.0,7.0,84,0.00,,,0.00,Wunderground v.1.15,2013-06-06 23:40:00,
2013-06-06 18:50:00,67.2,61.9,29.88,NNE,17,0.0,7.0,83,0.00,,,0.00,Wunderground v.1.15,2013-06-06 23:50:00,
2013-06-06 18:55:00,67.1,61.8,29.88,NNE,17,0.0,7.0,83,0.00,,,0.00,Wunderground v.1.15,2013-06-06 23:55:00,
2013-06-06 19:00:00,67.2,61.9,29.87,NNE,17,0.0,7.0,83,0.00,,,0.00,Wunderground v.1.15,2013-06-07 00:00:00,
2013-06-06 19:05:00,67.2,62.2,29.87,NNE,17,0.0,7.0,84,0.00,,,0.00,Wunderground v.1.15,2013-06-07 00:05:00,
2013-06-06 19:10:00,67.2,61.9,29.87,NNE,17,0.0,7.0,83,0.00,,,0.00,Wunderground v.1.15,2013-06-07 00:10:00,
2013-06-06 19:19:00,67.4,62.1,29.87,NNE,17,0.0,7.0,83,0.00,,,0.00,Wunderground v.1.15,2013-06-07 00:19:00,
2013-06-06 19:24:00,67.4,62.1,29.87,NNE,17,0.0,7.0,83,0.00,,,0.00,Wunderground v.1.15,2013-06-07 00:24:00,
2013-06-06 19:30:00,67.4,62.1,29.87,NNE,17,0.0,7.0,83,0.00,,,0.00,Wunderground v.1.15,2013-06-07 00:30:00,
2013-06-06 19:35:00,67.4,62.1,29.87,NNE,17,0.0,7.0,83,0.00,,,0.00,Wunderground v.1.15,2013-06-07 00:35:00,
2013-06-06 19:40:00,67.4,61.7,29.87,NNE,17,0.0,7.0,82,0.00,,,0.00,Wunderground v.1.15,2013-06-07 00:40:00,
2013-06-06 19:45:00,67.4,61.7,29.87,NNE,17,1.0,7.0,82,0.00,,,0.00,Wunderground v.1.15,2013-06-07 00:45:00,
2013-06-06 19:54:00,67.5,61.8,29.87,NNE,17,0.0,7.0,82,0.00,,,0.00,Wunderground v.1.15,2013-06-07 00:54:00,
2013-06-06 19:59:00,67.4,62.1,29.88,NNE,17,0.0,7.0,83,0.00,,,0.00,Wunderground v.1.15,2013-06-07 00:59:00,
2013-06-06 20:04:00,67.4,62.1,29.88,NNE,17,0.0,7.0,83,0.00,,,0.00,Wunderground v.1.15,2013-06-07 01:04:00,
2013-06-06 20:09:00,67.3,62.0,29.88,NNE,17,0.0,7.0,83,0.00,,,0.00,Wunderground v.1.15,2013-06-07 01:09:00,
2013-06-06 20:14:00,67.3,62.3,29.88,NNE,17,0.0,7.0,84,0.00,,,0.00,Wunderground v.1.15,2013-06-07 01:14:00,
2013-06-06 20:20:00,67.2,62.2,29.88,NNE,17,0.0,7.0,84,0.00,,,0.00,Wunderground v.1.15,2013-06-07 01:20:00,
2013-06-06 20:25:00,66.9,61.6,29.88,NNE,17,0.0,7.0,83,0.00,,,0.00,Wunderground v.1.15,2013-06-07 01:25:00,
2013-06-06 20:30:00,66.7,61.4,29.88,NNE,17,0.0,7.0,83,0.00,,,0.00,Wunderground v.1.15,2013-06-07 01:30:00,
2013-06-06 20:35:00,66.5,61.2,29.88,NNE,17,0.0,7.0,83,0.00,,,0.00,Wunderground v.1.15,2013-06-07 01:35:00,
2013-06-06 20:40:00,66.3,61.0,29.87,NNE,17,0.0,7.0,83,0.00,,,0.00,Wunderground v.1.15,2013-06-07 01:40:00,
2013-06-06 20:45:00,66.1,60.8,29.87,NNE,17,0.0,7.0,83,0.00,,,0.00,Wunderground v.1.15,2013-06-07 01:45:00,
2013-06-06 20:55:00,65.9,60.9,29.88,NNE,17,0.0,7.0,84,0.00,,,0.00,Wunderground v.1.15,2013-06-07 01:55:00,
2013-06-06 21:00:00,65.7,60.4,29.88,NNE,19,0.0,7.0,83,0.00,,,0.00,Wunderground v.1.15,2013-06-07 02:00:00,
2013-06-06 21:05:00,65.6,60.0,29.88,SE,132,0.0,7.0,82,0.00,,,0.00,Wunderground v.1.15,2013-06-07 02:05:00,
2013-06-06 21:10:00,65.4,59.4,29.88,ESE,115,1.0,1.0,81,0.00,,,0.00,Wunderground v.1.15,2013-06-07 02:10:00,
2013-06-06 21:15:00,65.2,59.2,29.89,ESE,118,1.0,7.0,81,0.00,,,0.00,Wunderground v.1.15,2013-06-07 02:15:00,
2013-06-06 21:25:00,64.4,57.7,29.89,East,98,0.0,7.0,79,0.00,,,0.00,Wunderground v.1.15,2013-06-07 02:25:00,
2013-06-06 21:30:00,64.1,57.1,29.89,NNE,22,1.0,7.0,78,0.00,,,0.00,Wunderground v.1.15,2013-06-07 02:30:00,
2013-06-06 21:35:00,63.8,56.8,29.89,NNE,23,1.0,7.0,78,0.00,,,0.00,Wunderground v.1.15,2013-06-07 02:35:00,
2013-06-06 21:40:00,63.5,56.5,29.90,ENE,65,1.0,1.0,78,0.00,,,0.00,Wunderground v.1.15,2013-06-07 02:40:00,
2013-06-06 21:45:00,63.2,56.2,29.90,ENE,65,1.0,7.0,78,0.00,,,0.00,Wunderground v.1.15,2013-06-07 02:45:00,
2013-06-06 21:50:00,63.0,56.4,29.91,ENE,65,0.0,7.0,79,0.00,,,0.00,Wunderground v.1.15,2013-06-07 02:50:00,
2013-06-06 22:00:00,62.3,56.4,29.91,ENE,65,0.0,7.0,81,0.00,,,0.00,Wunderground v.1.15,2013-06-07 03:00:00,
2013-06-06 22:05:00,62.0,56.1,29.91,ENE,65,0.0,7.0,81,0.00,,,0.00,Wunderground v.1.15,2013-06-07 03:05:00,
2013-06-06 22:10:00,61.6,55.7,29.91,ENE,70,0.0,7.0,81,0.00,,,0.00,Wunderground v.1.15,2013-06-07 03:10:00,
2013-06-06 22:15:00,61.2,55.0,29.92,ENE,73,1.0,7.0,80,0.00,,,0.00,Wunderground v.1.15,2013-06-07 03:15:00,
2013-06-06 22:20:00,60.9,55.0,29.92,ENE,73,0.0,7.0,81,0.00,,,0.00,Wunderground v.1.15,2013-06-07 03:20:00,
2013-06-06 22:25:00,60.7,54.8,29.92,ENE,73,0.0,7.0,81,0.00,,,0.00,Wunderground v.1.15,2013-06-07 03:25:00,
2013-06-06 22:35:00,60.2,54.3,29.92,ENE,74,0.0,7.0,81,0.00,,,0.00,Wunderground v.1.15,2013-06-07 03:35:00,
2013-06-06 22:40:00,60.0,54.5,29.92,ENE,74,0.0,7.0,82,0.00,,,0.00,Wunderground v.1.15,2013-06-07 03:40:00,
2013-06-06 22:45:00,59.8,54.6,29.92,ENE,74,0.0,7.0,83,0.00,,,0.00,Wunderground v.1.15,2013-06-07 03:45:00,
2013-06-06 22:50:00,59.4,54.2,29.92,ENE,74,0.0,7.0,83,0.00,,,0.00,Wunderground v.1.15,2013-06-07 03:50:00,
2013-06-06 22:55:00,59.1,53.9,29.92,ENE,74,0.0,7.0,83,0.00,,,0.00,Wunderground v.1.15,2013-06-07 03:55:00,
2013-06-06 23:04:00,58.9,54.1,29.92,ENE,74,0.0,7.0,84,0.00,,,0.00,Wunderground v.1.15,2013-06-07 04:04:00,
2013-06-06 23:09:00,58.6,53.8,29.92,ENE,74,0.0,7.0,84,0.00,,,0.00,Wunderground v.1.15,2013-06-07 04:09:00,
2013-06-06 23:14:00,58.3,53.8,29.92,ENE,74,0.0,7.0,85,0.00,,,0.00,Wunderground v.1.15,2013-06-07 04:14:00,
2013-06-06 23:19:00,58.1,53.6,29.92,ENE,73,0.0,7.0,85,0.00,,,0.00,Wunderground v.1.15,2013-06-07 04:19:00,
2013-06-06 23:24:00,57.9,53.4,29.92,ENE,73,0.0,7.0,85,0.00,,,0.00,Wunderground v.1.15,2013-06-07 04:24:00,
2013-06-06 23:29:00,57.8,53.3,29.92,ENE,73,0.0,7.0,85,0.00,,,0.00,Wunderground v.1.15,2013-06-07 04:29:00,
2013-06-06 23:34:00,57.7,52.9,29.92,ENE,73,0.0,7.0,84,0.00,,,0.00,Wunderground v.1.15,2013-06-07 04:34:00,
2013-06-06 23:39:00,57.6,52.8,29.92,ENE,73,0.0,7.0,84,0.00,,,0.00,Wunderground v.1.15,2013-06-07 04:39:00,
2013-06-06 23:44:00,57.5,53.0,29.92,ENE,73,0.0,7.0,85,0.00,,,0.00,Wunderground v.1.15,2013-06-07 04:44:00,
2013-06-06 23:49:00,57.3,52.5,29.92,ENE,73,0.0,7.0,84,0.00,,,0.00,Wunderground v.1.15,2013-06-07 04:49:00,
2013-06-06 23:54:00,57.3,52.5,29.92,ENE,73,0.0,7.0,84,0.00,,,0.00,Wunderground v.1.15,2013-06-07 04:54:00,
2013-06-06 23:59:00,57.2,52.7,29.92,ENE,73,0.0,7.0,85,0.00,,,0.00,Wunderground v.1.15,2013-06-07 04:59:00,